Weather History for Kemmerer, WY

Change the Weather History Date:

Monday, October 14, 2013

  Actual Average Record
Temperature  
Mean Temperature 36 °F -  
Max Temperature 41 °F 55 °F 74 °F (1973)
Min Temperature 32 °F 25 °F 6 °F (1966)
Degree Days  
Heating Degree Days 28    
Moisture  
Dew Point 31 °F    
Average Humidity 87    
Maximum Humidity 100    
Minimum Humidity 65    
Precipitation  
Precipitation 0.09 in - - ()
Sea Level Pressure  
Sea Level Pressure 30.12 in    
Wind  
Wind Speed 13 mph (WNW)    
Max Wind Speed 23 mph    
Max Gust Speed 31 mph    
Visibility 8 miles    
Events Fog , Snow    
Averages and records for this station are not official NWS values.
T = Trace of Precipitation, MM = Missing Value Source: NWS Daily Summary

Daily Weather History Graph

Daily Weather History Graph

Search for Another Location

Airport:

Trip Planner

Search our weather history database for the weather conditions in past years. The results will help you decide how hot, cold, wet, or windy it might be!

Date:

Astronomy

Oct. 14, 2013 Rise Set
Actual Time 7:33 AM MDT 6:41 PM MDT
Civil Twilight 7:05 AM MDT 7:09 PM MDT
Nautical Twilight 6:33 AM MDT 7:42 PM MDT
Astronomical Twilight 6:01 AM MDT 8:14 PM MDT
Moon 4:16 PM MDT (10/14) 2:50 AM MDT (10/14)
Length of Visible Light 12h 04m
Length of Day
11h 08m
Waxing Gibbous, 80% of the Moon is Illuminated
Oct 14
Waxing Gibbous
Oct 18
Full
Oct 26
Last Quarter
Nov 3
New
Nov 9
First Quarter

Hourly Weather History & Observations

Time (MDT) Temp. Windchill Dew Point Humidity Pressure Visibility Wind Dir Wind Speed Gust Speed Precip Events Conditions
12:15 AM 32.0 °F 27.5 °F 32.0 °F 100% 30.04 in 0.2 mi WSW 4.6 mph - N/A Snow Light Snow
12:55 AM 32.0 °F 24.8 °F 32.0 °F 100% 30.02 in 0.2 mi West 8.1 mph - N/A Snow Light Snow
1:35 AM 32.0 °F 24.8 °F 32.0 °F 100% 30.02 in 0.2 mi West 8.1 mph - N/A Fog Fog
1:55 AM 32.0 °F 24.8 °F 32.0 °F 100% 30.02 in 0.2 mi West 8.1 mph - N/A Fog Fog
2:15 AM 32.0 °F 25.6 °F 32.0 °F 100% 30.02 in 0.2 mi West 6.9 mph - N/A Fog Fog
3:15 AM 33.8 °F 25.8 °F 33.8 °F 100% 30.02 in 10.0 mi West 10.4 mph - N/A   Overcast
3:55 AM 32.0 °F 24.2 °F 32.0 °F 100% 30.02 in 10.0 mi West 9.2 mph - N/A   Overcast
4:35 AM 32.0 °F 22.5 °F 32.0 °F 100% 30.02 in 10.0 mi West 12.7 mph - N/A   Overcast
7:55 AM 32.0 °F 22.5 °F 32.0 °F 100% 30.06 in 10.0 mi WNW 12.7 mph 17.3 mph N/A Snow Light Snow
8:35 AM 32.0 °F 20.1 °F 32.0 °F 100% 30.07 in 10.0 mi West 19.6 mph 24.2 mph N/A   Overcast
8:55 AM 32.0 °F 20.8 °F 32.0 °F 100% 30.08 in 10.0 mi West 17.3 mph 23.0 mph N/A   Overcast
9:35 AM 32.0 °F 23.0 °F 32.0 °F 100% 30.11 in 10.0 mi West 11.5 mph - N/A   Overcast
9:55 AM 32.0 °F 21.2 °F 32.0 °F 100% 30.12 in 10.0 mi West 16.1 mph - N/A   Overcast
11:35 AM 35.6 °F 24.5 °F 32.0 °F 87% 30.14 in 10.0 mi West 20.7 mph 24.2 mph 0.03 in   Mostly Cloudy
11:55 AM 37.4 °F 28.2 °F 32.0 °F 81% 30.14 in 10.0 mi WNW 16.1 mph 23.0 mph 0.07 in   Mostly Cloudy
12:15 PM 35.6 °F 25.5 °F 32.0 °F 87% 30.14 in 10.0 mi WNW 17.3 mph 25.3 mph 0.01 in   Overcast
12:35 PM 37.4 °F 27.5 °F 32.0 °F 81% 30.14 in 10.0 mi WNW 18.4 mph 23.0 mph 0.02 in   Mostly Cloudy
12:55 PM 37.4 °F 26.6 °F 32.0 °F 81% 30.14 in 10.0 mi WNW 21.9 mph 26.5 mph 0.02 in   Mostly Cloudy
1:15 PM 37.4 °F 27.5 °F 32.0 °F 81% 30.14 in 10.0 mi WNW 18.4 mph 21.9 mph N/A   Mostly Cloudy
1:35 PM 35.6 °F 25.2 °F 30.2 °F 81% 30.15 in 10.0 mi WNW 18.4 mph - N/A   Mostly Cloudy
1:55 PM 37.4 °F 27.8 °F 30.2 °F 75% 30.15 in 10.0 mi WNW 17.3 mph 26.5 mph N/A   Mostly Cloudy
2:15 PM 41.0 °F 31.1 °F 32.0 °F 70% 30.15 in 10.0 mi WNW 23.0 mph - N/A   Overcast
2:35 PM 39.2 °F 29.0 °F 30.2 °F 70% 30.15 in 10.0 mi WNW 21.9 mph 27.6 mph N/A   Overcast
2:55 PM 41.0 °F 31.9 °F 30.2 °F 65% 30.15 in 10.0 mi WNW 19.6 mph 24.2 mph N/A   Mostly Cloudy
3:15 PM 35.6 °F 25.9 °F 32.0 °F 87% 30.16 in 7.0 mi NW 16.1 mph 28.8 mph N/A Snow Light Snow
3:35 PM 37.4 °F 26.9 °F 30.2 °F 75% 30.15 in 10.0 mi WNW 20.7 mph 26.5 mph N/A   Overcast
3:55 PM 39.2 °F 28.7 °F 28.4 °F 65% 30.15 in 10.0 mi WNW 23.0 mph 27.6 mph N/A   Scattered Clouds
4:15 PM 39.2 °F 29.6 °F 30.2 °F 70% 30.16 in 10.0 mi WNW 19.6 mph 31.1 mph N/A   Clear
4:35 PM 37.4 °F 26.6 °F 28.4 °F 70% 30.17 in 10.0 mi WNW 21.9 mph - N/A   Clear
5:15 PM 37.4 °F 26.6 °F 28.4 °F 70% 30.18 in 10.0 mi WNW 21.9 mph 27.6 mph N/A   Scattered Clouds
5:35 PM 33.8 °F 25.3 °F 30.2 °F 87% 30.18 in 2.5 mi NW 11.5 mph 17.3 mph N/A Snow Light Snow
5:55 PM 35.6 °F 26.2 °F 28.4 °F 75% 30.19 in 10.0 mi WNW 15.0 mph - N/A   Overcast
6:15 PM 33.8 °F 23.5 °F 30.2 °F 87% 30.20 in 10.0 mi NW 16.1 mph - N/A   Overcast
6:35 PM 32.0 °F 21.2 °F 30.2 °F 93% 30.19 in 7.0 mi WNW 16.1 mph 20.7 mph N/A Snow Light Snow
6:55 PM 32.0 °F 22.5 °F 30.2 °F 93% 30.19 in 10.0 mi WNW 12.7 mph - N/A   Overcast
8:15 PM 32.0 °F - 30.2 °F 93% 30.22 in 10.0 mi Calm Calm - N/A   Overcast